Regional Weather Roundup
Issued by NWS

Home | Current Version | Previous Version | Text Only | Print | Product List | Glossary On
Versions: 1 2 3 4 5 6 7 8 9 10 11 12 13 14 15 16 17 18 19 20 21 22 23 24 25 26 27 28 29 30 31 32 33 34 35 36 37 38 39 40 41 42 43 44 45 46 47 48 49 50
000
ASUS43 KTOP 290059
RWRKS

WEATHER ROUNDUP FOR KANSAS
NATIONAL WEATHER SERVICE GOODLAND KS
800 PM CDT WED SEP 28 2016

NOTE:  "FAIR" INDICATES FEW OR NO CLOUDS BELOW 12,000 FEET WITH NO
SIGNIFICANT WEATHER AND/OR OBSTRUCTIONS TO VISIBILITY.

KSZ001>006-013>018-027>032-041>047-290200-
NORTHWEST KANSAS

CITY           SKY/WX    TMP DP  RH WIND       PRES   REMARKS
GOODLAND       CLEAR     63  43  48 E9        30.27R
HAYS           CLEAR     61  36  39 E9        30.25R
HILL CITY      CLEAR     58  44  60 NE8       30.26R
RUSSELL        CLEAR     61  47  59 NE6       30.23R
$$

KSZ061>065-074>080-084>089-290200-
SOUTHWEST KANSAS

CITY           SKY/WX    TMP DP  RH WIND       PRES   REMARKS
DODGE CITY     CLEAR     62  44  51 NE6       30.25R
ELKHART          N/A     74  40  29 MISG        N/A
GARDEN CITY    CLEAR     69  43  38 E12       30.23R
GREAT BEND     CLEAR     63  39  42 NE7       30.24R
LIBERAL        CLEAR     75  43  31 E12       30.23R
$$

KSZ066>073-081>083-090>101-290200-
SOUTHEAST KANSAS

CITY           SKY/WX    TMP DP  RH WIND       PRES   REMARKS
CHANUTE        CLEAR     61  49  64 N7        30.18R
COFFEYVILLE    CLEAR     62  48  60 N8        30.17R
HUTCHINSON     CLEAR     63  47  55 NE5       30.22R
MEDICINE LODGE   N/A     63  42  46 NE6       30.21R
NEWTON         CLEAR     59  48  67 N8        30.22R
PARSONS        CLEAR     60  49  66 N6        30.19R
WICHITA INTL   PTCLDY    66  48  52 N10       30.20R
WICHITA JABRA  CLEAR     58  49  72 N7        30.20R
WICHITA MCCONL CLEAR     63  47  55 NE10      30.20R
WINFIELD       CLEAR     64  48  56 NE7       30.19R
$$

KSZ007>012-019>026-033>040-048>060-102>105-290200-
NORTHEAST KANSAS

CITY           SKY/WX    TMP DP  RH WIND       PRES   REMARKS
CONCORDIA      CLEAR     59  45  59 NE3       30.25R
EMPORIA        CLEAR     58  48  69 NE8       30.21R
LAWRENCE       CLEAR     57  49  74 N7        30.22R
MANHATTAN      CLEAR     60  47  61 N3        30.23R
OLATHE IND     CLEAR     56  48  74 N8        30.21R
OLATHE EXE     CLEAR     58  47  66 N9        30.21R
SALINA         CLEAR     66  44  45 NE7       30.24R
TOPEKA BILLARD CLEAR     58  49  72 N8        30.22R
TOPEKA FORBES  CLEAR     60  48  64 N6        30.21R
$$




USA.gov is the U.S. government's official web portal to all federal, state and local government web resources and services.